Location: Clanezzo
(45.7500°N, 9.6000°E)
Time: 00:49:12
(UTC+00:00)

Milstar 3 - Pass Details

Date: 12 May 2021
Orbit: 1089 x 5155 km, 28.3° (Epoch: 08 May)

Event Time Altitude Azimuth Distance (km) Brightness Sun altitude
Rises 20:54:09 0° 247° (WSW) 7,052 7.1 -18.1°
Reaches altitude 10° 21:00:19 10° 239° (WSW) 5,316 6.3 -18.7°
Maximum altitude 21:11:04 29° 186° (S) 2,822 4.4 -19.7°
Enters shadow 21:13:08 27° 166° (SSE) 2,725 4.2 -19.9°
